TimeAKST,TemperatureF,Dew PointF,Humidity,Sea Level PressureIn,VisibilityMPH,Wind Direction,Wind SpeedMPH,Gust SpeedMPH,PrecipitationIn,Events,Conditions,WindDirDegrees,DateUTC
12:24 AM,3.2,-9999,N/A,29.81,2.5,West,3.5,-,0.00,Snow,Light Snow,280,2012-12-11 09:24:00
12:56 AM,3.9,-9999,N/A,29.88,3.0,WSW,5.8,-,0.00,Snow,Light Snow,250,2012-12-11 09:56:00
1:08 AM,3.2,-9999,N/A,29.84,-9999.0,WSW,5.8,-,0.00,Snow,Light Snow,250,2012-12-11 10:08:00
1:17 AM,3.2,-9999,N/A,29.84,4.0,SW,5.8,-,0.00,Snow,Light Snow,230,2012-12-11 10:17:00
1:24 AM,3.2,-9999,N/A,29.85,-9999.0,SW,6.9,-,0.00,Snow,Light Snow,230,2012-12-11 10:24:00
1:43 AM,3.2,-9999,N/A,29.85,2.5,SSW,6.9,-,0.00,Snow,Light Snow,210,2012-12-11 10:43:00
1:56 AM,1.9,-9999,N/A,29.90,2.5,SW,6.9,-,0.00,Snow,Light Snow,220,2012-12-11 10:56:00
2:54 AM,1.4,-9999,N/A,29.89,1.8,SSW,4.6,-,0.01,Snow,Light Snow,210,2012-12-11 11:54:00
2:56 AM,1.9,-9999,N/A,29.94,1.8,SW,4.6,-,0.01,Snow,Light Snow,220,2012-12-11 11:56:00
3:09 AM,1.4,-9999,N/A,29.90,-9999.0,SW,3.5,-,0.00,Snow,Light Snow,230,2012-12-11 12:09:00
3:56 AM,1.9,-9999,N/A,29.97,3.0,Calm,Calm,-,0.00,Snow,Light Snow,0,2012-12-11 12:56:00
4:03 AM,1.4,-9999,N/A,29.92,4.0,Calm,Calm,-,0.00,Snow,Light Snow,0,2012-12-11 13:03:00
4:16 AM,1.4,-9999,N/A,29.92,2.5,Calm,Calm,-,0.00,Snow,Light Snow,0,2012-12-11 13:16:00
4:31 AM,1.4,-9999,N/A,29.93,5.0,Calm,Calm,-,0.00,Snow,Light Snow,0,2012-12-11 13:31:00
4:56 AM,1.9,-9999,N/A,29.97,10.0,Calm,Calm,-,0.00,,Overcast,0,2012-12-11 13:56:00
5:56 AM,1.9,-9999,N/A,29.98,3.0,Calm,Calm,-,0.00,Snow,Light Snow,0,2012-12-11 14:56:00
6:30 AM,1.4,-9999,N/A,29.94,5.0,ENE,5.8,-,N/A,Snow,Light Snow,70,2012-12-11 15:30:00
6:55 AM,1.4,-9999,N/A,29.98,5.0,East,5.8,-,N/A,Snow,Light Snow,90,2012-12-11 15:55:00
7:22 AM,1.4,-9999,N/A,29.94,2.0,East,4.6,-,N/A,Snow,Light Snow,90,2012-12-11 16:22:00
7:35 AM,1.4,-9999,N/A,29.94,4.0,East,5.8,-,N/A,Snow,Light Snow,80,2012-12-11 16:35:00
7:55 AM,1.4,-9999,N/A,29.99,3.0,ENE,4.6,-,N/A,Snow,Light Snow,70,2012-12-11 16:55:00
8:58 AM,1.4,-9999,N/A,29.98,4.0,ENE,3.5,-,N/A,Snow,Light Snow,70,2012-12-11 17:58:00
9:22 AM,3.2,-9999,N/A,29.94,4.0,East,3.5,-,N/A,Snow,Light Snow,80,2012-12-11 18:22:00
9:55 AM,3.2,-9999,N/A,29.98,4.0,ENE,4.6,-,N/A,Snow,Light Snow,70,2012-12-11 18:55:00
10:24 AM,3.2,-9999,N/A,29.94,2.5,ENE,3.5,-,N/A,Snow,Light Snow,60,2012-12-11 19:24:00
10:55 AM,3.2,-0.4,85,29.98,2.5,Variable,1.2,-,N/A,Snow,Light Snow,0,2012-12-11 19:55:00
11:06 AM,3.2,-0.4,85,29.94,3.0,East,4.6,-,N/A,Snow,Light Snow,90,2012-12-11 20:06:00
11:55 AM,3.2,-0.4,85,29.98,5.0,ENE,2.3,-,N/A,Snow,Light Snow,70,2012-12-11 20:55:00
12:07 PM,3.2,-0.4,85,29.94,2.5,ENE,2.3,-,N/A,Snow,Light Snow,60,2012-12-11 21:07:00
12:17 PM,3.2,-0.4,85,29.94,2.0,ENE,3.5,-,N/A,Snow,Light Snow,60,2012-12-11 21:17:00
12:55 PM,5.0,-0.4,78,29.96,3.0,ENE,3.5,-,N/A,Snow,Overcast,70,2012-12-11 21:55:00
1:16 PM,5.0,-0.4,78,29.92,5.0,ENE,3.5,-,N/A,Snow,Light Snow,60,2012-12-11 22:16:00
1:55 PM,6.8,1.4,79,29.97,5.0,Calm,Calm,-,N/A,Snow,Light Snow,0,2012-12-11 22:55:00
2:13 PM,6.8,1.4,79,29.92,3.0,ENE,2.3,-,N/A,Snow,Light Snow,60,2012-12-11 23:13:00
2:55 PM,5.0,1.4,85,29.95,5.0,ENE,4.6,-,N/A,Snow,Light Snow,70,2012-12-11 23:55:00
3:55 PM,6.8,1.4,79,29.91,6.0,ENE,5.8,-,N/A,Snow,Light Snow,70,2012-12-12 00:55:00
4:55 PM,6.8,1.4,79,29.88,7.0,East,4.6,-,N/A,Snow,Light Snow,80,2012-12-12 01:55:00
5:19 PM,6.8,1.4,79,29.83,2.0,ENE,4.6,-,N/A,Snow,Light Snow,70,2012-12-12 02:19:00
5:42 PM,6.8,1.4,79,29.82,5.0,ENE,6.9,-,N/A,Snow,Light Snow,60,2012-12-12 02:42:00
5:55 PM,6.8,3.2,85,29.85,6.0,ENE,4.6,-,N/A,Snow,Light Snow,70,2012-12-12 02:55:00
6:55 PM,8.6,3.2,79,29.82,7.0,East,5.8,-,N/A,Snow,Light Snow,90,2012-12-12 03:55:00
7:55 PM,8.6,3.2,79,29.78,7.0,ENE,6.9,-,N/A,Snow,Light Snow,70,2012-12-12 04:55:00
8:55 PM,8.6,3.2,79,29.72,7.0,East,5.8,-,N/A,Snow,Light Snow,80,2012-12-12 05:55:00
9:55 PM,10.4,5.0,79,29.67,7.0,East,6.9,-,N/A,Snow,Light Snow,80,2012-12-12 06:55:00
10:56 PM,10.9,6.1,81,29.60,10.0,East,4.6,-,N/A,,Mostly Cloudy,80,2012-12-12 07:56:00
11:56 PM,10.0,5.0,80,29.55,10.0,ENE,6.9,-,N/A,,Mostly Cloudy,70,2012-12-12 08:56:00